TimeCST,TemperatureF,Dew PointF,Humidity,Sea Level PressureIn,VisibilityMPH,Wind Direction,Wind SpeedMPH,Gust SpeedMPH,PrecipitationIn,Events,Conditions,WindDirDegrees,DateUTC
12:15 AM,28.4,19.4,69,30.30,10.0,Calm,Calm,-,N/A,,Overcast,0,2013-02-16 06:15:00
12:35 AM,28.4,17.6,64,30.29,10.0,Calm,Calm,-,N/A,,Overcast,0,2013-02-16 06:35:00
12:55 AM,28.4,19.4,69,30.30,10.0,Calm,Calm,-,N/A,,Overcast,0,2013-02-16 06:55:00
1:15 AM,28.4,19.4,69,30.29,10.0,NNW,3.5,-,N/A,,Overcast,340,2013-02-16 07:15:00
1:35 AM,28.4,17.6,64,30.30,10.0,NNW,3.5,-,N/A,,Overcast,330,2013-02-16 07:35:00
1:55 AM,28.4,17.6,64,30.29,10.0,NNW,4.6,-,N/A,,Overcast,340,2013-02-16 07:55:00
2:15 AM,26.6,17.6,69,30.29,10.0,NNW,4.6,-,N/A,,Overcast,330,2013-02-16 08:15:00
2:35 AM,26.6,17.6,69,30.30,10.0,NNW,4.6,-,N/A,,Overcast,340,2013-02-16 08:35:00
2:55 AM,26.6,15.8,64,30.29,10.0,NNW,4.6,-,N/A,,Mostly Cloudy,330,2013-02-16 08:55:00
3:15 AM,24.8,15.8,69,30.29,10.0,NW,4.6,-,N/A,,Scattered Clouds,320,2013-02-16 09:15:00
3:35 AM,24.8,14.0,64,30.28,10.0,NW,3.5,-,N/A,,Clear,320,2013-02-16 09:35:00
3:55 AM,23.0,15.8,74,30.29,10.0,NW,3.5,-,N/A,,Scattered Clouds,310,2013-02-16 09:55:00
4:15 AM,23.0,15.8,74,30.29,10.0,NW,4.6,-,N/A,,Scattered Clouds,310,2013-02-16 10:15:00
4:35 AM,21.2,14.0,74,30.29,10.0,WNW,3.5,-,N/A,,Scattered Clouds,290,2013-02-16 10:35:00
5:15 AM,23.0,14.0,68,30.30,10.0,NW,3.5,-,N/A,,Scattered Clouds,310,2013-02-16 11:15:00
5:35 AM,21.2,14.0,74,30.30,10.0,WNW,3.5,-,N/A,,Clear,300,2013-02-16 11:35:00
5:55 AM,21.2,14.0,74,30.30,10.0,NW,3.5,-,N/A,,Clear,310,2013-02-16 11:55:00
6:15 AM,21.2,14.0,74,30.30,10.0,WNW,3.5,-,N/A,,Clear,290,2013-02-16 12:15:00
6:35 AM,21.2,14.0,74,30.31,10.0,West,4.6,-,N/A,,Clear,280,2013-02-16 12:35:00
6:55 AM,21.2,14.0,74,30.31,10.0,WNW,3.5,-,N/A,,Clear,300,2013-02-16 12:55:00
7:15 AM,21.2,14.0,74,30.30,10.0,NW,3.5,-,N/A,,Clear,310,2013-02-16 13:15:00
7:35 AM,21.2,15.8,80,30.31,10.0,Calm,Calm,-,N/A,,Clear,0,2013-02-16 13:35:00
7:55 AM,21.2,15.8,80,30.31,10.0,Calm,Calm,-,N/A,,Clear,0,2013-02-16 13:55:00
8:15 AM,23.0,15.8,74,30.32,10.0,Calm,Calm,-,N/A,,Clear,0,2013-02-16 14:15:00
8:35 AM,23.0,15.8,74,30.33,10.0,West,3.5,-,N/A,,Clear,280,2013-02-16 14:35:00
8:55 AM,23.0,14.0,68,30.32,10.0,Calm,Calm,-,N/A,,Clear,0,2013-02-16 14:55:00
9:15 AM,26.6,15.8,64,30.31,10.0,Calm,Calm,-,N/A,,Clear,0,2013-02-16 15:15:00
9:35 AM,26.6,17.6,69,30.30,10.0,Calm,Calm,-,N/A,,Clear,0,2013-02-16 15:35:00
12:15 PM,32.0,19.4,60,30.26,10.0,SW,11.5,17.3,N/A,,Scattered Clouds,220,2013-02-16 18:15:00
12:35 PM,33.8,21.2,60,30.24,10.0,SSW,9.2,-,N/A,,Scattered Clouds,210,2013-02-16 18:35:00
12:55 PM,33.8,19.4,56,30.22,10.0,SSW,12.7,18.4,N/A,,Scattered Clouds,200,2013-02-16 18:55:00
1:15 PM,33.8,19.4,56,30.21,10.0,SW,12.7,17.3,N/A,,Mostly Cloudy,220,2013-02-16 19:15:00
1:35 PM,33.8,19.4,56,30.20,10.0,SW,12.7,-,N/A,,Overcast,220,2013-02-16 19:35:00
1:55 PM,33.8,19.4,56,30.19,10.0,SSW,12.7,16.1,N/A,,Overcast,200,2013-02-16 19:55:00
2:15 PM,33.8,19.4,56,30.18,10.0,South,9.2,-,N/A,,Overcast,190,2013-02-16 20:15:00
2:35 PM,33.8,19.4,56,30.17,10.0,SSW,8.1,-,N/A,,Overcast,210,2013-02-16 20:35:00
2:55 PM,33.8,17.6,52,30.17,10.0,SSW,11.5,16.1,N/A,,Overcast,210,2013-02-16 20:55:00
3:15 PM,33.8,17.6,52,30.17,10.0,South,10.4,-,N/A,,Overcast,190,2013-02-16 21:15:00
3:55 PM,33.8,19.4,56,30.17,10.0,South,9.2,-,N/A,,Overcast,180,2013-02-16 21:55:00
4:15 PM,33.8,19.4,56,30.17,10.0,SSW,8.1,-,N/A,,Overcast,210,2013-02-16 22:15:00
4:35 PM,33.8,19.4,56,30.17,10.0,SSW,8.1,-,N/A,,Overcast,200,2013-02-16 22:35:00
5:15 PM,33.8,19.4,56,30.17,10.0,SSW,9.2,-,N/A,,Overcast,210,2013-02-16 23:15:00
5:55 PM,32.0,21.2,64,30.17,10.0,SSW,6.9,-,N/A,,Overcast,210,2013-02-16 23:55:00
6:15 PM,32.0,21.2,64,30.17,10.0,South,4.6,-,N/A,,Overcast,190,2013-02-17 00:15:00
6:35 PM,32.0,21.2,64,30.17,10.0,South,5.8,-,N/A,,Overcast,190,2013-02-17 00:35:00
6:55 PM,32.0,21.2,64,30.16,10.0,South,5.8,-,N/A,,Overcast,180,2013-02-17 00:55:00
7:15 PM,32.0,21.2,64,30.16,10.0,SSE,4.6,-,N/A,,Overcast,160,2013-02-17 01:15:00
7:35 PM,32.0,21.2,64,30.15,10.0,SSE,4.6,-,N/A,,Overcast,160,2013-02-17 01:35:00
7:55 PM,32.0,21.2,64,30.15,10.0,SSE,4.6,-,N/A,,Overcast,160,2013-02-17 01:55:00
8:15 PM,32.0,21.2,64,30.15,10.0,SSE,5.8,-,N/A,,Overcast,150,2013-02-17 02:15:00
8:55 PM,32.0,21.2,64,30.13,10.0,SSE,6.9,-,N/A,,Overcast,150,2013-02-17 02:55:00
9:15 PM,32.0,21.2,64,30.13,10.0,SE,5.8,-,N/A,,Overcast,140,2013-02-17 03:15:00
9:35 PM,32.0,23.0,69,30.13,10.0,SE,5.8,-,N/A,,Overcast,130,2013-02-17 03:35:00
9:55 PM,32.0,23.0,69,30.13,10.0,SSE,5.8,-,N/A,,Overcast,150,2013-02-17 03:55:00
10:15 PM,32.0,23.0,69,30.13,10.0,SE,5.8,-,N/A,,Overcast,140,2013-02-17 04:15:00
10:35 PM,32.0,23.0,69,30.12,10.0,SE,5.8,-,N/A,,Overcast,140,2013-02-17 04:35:00
10:55 PM,32.0,23.0,69,30.12,10.0,SE,5.8,-,N/A,,Overcast,130,2013-02-17 04:55:00
11:15 PM,32.0,23.0,69,30.11,10.0,SE,5.8,-,N/A,,Overcast,130,2013-02-17 05:15:00
11:35 PM,32.0,23.0,69,30.10,10.0,SE,5.8,-,N/A,,Overcast,140,2013-02-17 05:35:00
11:55 PM,32.0,23.0,69,30.10,10.0,SE,6.9,-,N/A,,Overcast,140,2013-02-17 05:55:00